Location: Birdton
(46.1166°N, 66.8166°W)
Time: 00:55:51
(UTC-03:00)

Daily predictions for brighter satellites

Satellite Brightness Start Highest point End
(mag) Time Altitude Azimuth Time Altitude Azimuth Time Altitude Azimuth
Cosmos 1408 Rocket 4.3 00:05:00 35° ESE 00:05:45 38° E 00:09:53 10° NNE
H-2A R/B 3.1 00:04:51 22° SW 00:07:23 35° W 00:12:02 10° NNW
Meteor 2-5 Rocket 3.7 00:06:10 33° S 00:08:55 82° E 00:14:42 10° NNE
Cosmos 2369 4.3 00:03:30 10° NNW 00:09:01 50° ENE 00:11:48 28° ESE
Cosmos 1140 Rocket 4.4 00:07:18 12° SW 00:12:03 47° WNW 00:17:07 10° NNE
ALOS 2 3.7 00:11:21 28° ESE 00:12:41 35° ENE 00:16:40 10° N
ATLAS 3B R/B 4.2 00:06:07 10° WSW 00:13:17 41° NW 00:20:14 10° NNE
Terra 3.3 00:14:42 20° SW 00:16:52 29° W 00:20:59 10° NW
Cosmos 468 Rocket 4.0 00:12:04 10° NNW 00:17:22 76° ENE 00:19:11 41° SE
Cosmos 1340 2.9 00:17:42 47° SW 00:18:32 63° WNW 00:22:19 10° N
Meteor 2-1 Rocket 4.3 00:12:37 10° N 00:18:33 76° ENE 00:20:51 39° SSE
Cosmos 1553 Rocket 4.3 00:13:46 10° N 00:20:03 58° ENE 00:22:49 34° SE
Meteor 1-16 Rocket 4.2 00:17:24 10° NNW 00:23:04 87° W 00:25:17 40° S
Cosmos 1544 4.4 00:19:46 10° NNW 00:23:06 31° W 00:23:55 28° WSW
NOSS 3-2 (A) 3.4 00:20:31 30° SSW 00:23:40 69° ESE 00:30:20 10° NE
USA 234 4.3 00:21:50 24° SSW 00:23:52 28° SW 00:29:24 10° WNW
Lacrosse 4 Rocket 4.4 00:22:02 10° WNW 00:24:09 14° NW 00:26:17 10° N
Cosmos 1980 Rocket 4.2 00:20:16 10° N 00:24:31 21° NE 00:28:47 10° E
Cosmos 1814 Rocket 4.0 00:21:46 10° NNW 00:27:06 81° ENE 00:28:52 43° SSE
Cosmos 1470 3.7 00:23:34 10° NNW 00:27:11 37° W 00:27:56 34° WSW
Cosmos 2278 3.7 00:25:06 10° NNW 00:30:48 81° ENE 00:32:55 40° SE
H-2A R/B 2.9 00:28:19 10° NNE 00:31:54 41° E 00:31:54 41° E
BREEZE-M DEB (TANK) 3.6 00:30:50 10° WNW 00:33:43 26° NE 00:35:38 10° ENE
Lacrosse 5 2.8 00:27:55 10° NW 00:32:49 46° NNE 00:36:48 15° E
Landsat 5 4.1 00:32:22 38° E 00:33:06 42° ENE 00:36:59 10° N
Cosmos 1743 Rocket 4.4 00:34:23 35° ESE 00:34:54 37° E 00:39:00 10° NNE
Cosmos 405 Rocket 2.9 00:39:07 55° E 00:39:07 55° E 00:42:46 10° NNE
Cosmos 1697 Rocket 3.7 00:38:51 10° NNW 00:44:12 40° NE 00:47:24 22° ESE
Cosmos 1076 Rocket 3.4 00:44:25 63° SSW 00:45:05 85° W 00:49:22 10° N
Cosmos 2221 3.1 00:42:45 10° NNW 00:46:53 45° W 00:47:39 40° SW
Cosmos 1943 Rocket 4.4 00:46:16 10° WNW 00:48:03 12° W 00:49:50 10° WSW
Cosmos 1486 Rocket 3.9 00:46:58 49° S 00:48:15 70° ESE 00:53:28 10° NNE
S3M 3.9 00:42:30 10° N 00:48:47 87° W 00:51:06 41° S
Cosmos 1766 Rocket 3.5 00:49:03 58° SSW 00:49:55 84° W 00:54:26 10° N
Cosmos 2082 Rocket 2.8 00:49:20 36° SE 00:50:20 39° ESE 00:55:35 10° NE
Cosmos 1500 Rocket 4.3 00:51:06 36° ESE 00:51:28 36° E 00:55:27 10° NNE
Cosmos 1833 Rocket 3.6 00:52:22 31° ESE 00:53:13 32° ESE 00:58:11 10° NE
Cosmos 1328 Rocket 3.6 00:49:01 10° N 00:53:24 66° E 00:54:06 56° SE
Cosmos 1763 Rocket 3.5 00:48:17 10° NNW 00:53:38 75° ENE 00:55:16 45° SE
Cosmos 1428 Rocket 4.4 00:54:39 41° S 00:57:01 90° E 01:03:17 10° N
BREEZE-M DEB (TANK) 4.0 00:43:41 10° WSW 01:01:24 80° NNW 01:05:38 10° ENE
Lacrosse 5 rocket 3.2 00:58:28 10° NW 01:02:14 31° NNE 01:06:11 10° E
Cosmos 1707 4.4 01:01:37 23° WSW 01:02:46 27° WNW 01:06:09 10° NNW
Cosmos 1656 3.8 00:57:57 10° NNW 01:03:41 69° ENE 01:05:56 37° SE
Cosmos 1818 3.9 00:59:31 10° NW 01:04:47 49° WSW 01:05:47 43° SSW
Cosmos 1437 Rocket 3.9 01:05:15 10° N 01:08:48 32° ENE 01:09:21 31° E
Cosmos 1515 Rocket 3.5 01:04:47 10° N 01:09:16 76° E 01:09:58 61° SE
CZ-4B R/B 1.8 01:10:59 59° W 01:10:59 59° W 01:14:33 10° NNW
Timation 2 Rocket 4.1 01:08:03 34° SSW 01:11:21 90° W 01:18:10 10° NNE
Cosmos 1378 3.6 01:14:58 49° W 01:15:14 50° WNW 01:18:57 10° N
CENTAUR R/B 3.2 01:16:40 33° SE 01:17:54 36° ESE 01:23:59 10° NE
Cosmos 1689 Rocket 3.3 01:18:39 40° WNW 01:18:39 40° WNW 01:21:11 10° NNW
CZ-2C R/B 3.3 01:13:31 10° NNE 01:18:47 43° E 01:20:10 36° SE
Cosmos 1674 3.6 01:19:26 36° E 01:19:26 36° E 01:22:48 10° NNE
CZ-4C R/B 2.7 01:17:09 21° WSW 01:20:52 58° NW 01:27:00 10° NE
Cosmos 2228 Rocket 3.7 01:23:17 10° NNW 01:27:26 41° W 01:27:57 39° WSW
Helios 1A Rocket 2.8 01:23:40 10° NNE 01:27:46 83° WNW 01:28:09 72° SW
SL-16 R/B 4.1 01:25:50 10° N 01:30:33 26° NE 01:35:13 10° ESE
ISS -1.8 01:27:46 10° WNW 01:30:52 38° NNE 01:33:32 13° E
NOSS 3-2 (C) 4.0 01:27:22 19° WSW 01:31:58 60° NW 01:38:45 10° NE
In-Cosmos 22 4.2 01:33:15 45° SSW 01:35:03 77° WNW 01:40:48 10° N
Cosmos 841 Rocket 3.7 01:30:34 10° NNW 01:35:42 54° WSW 01:36:44 46° SW
Cosmos 1354 Rocket 4.0 01:35:56 48° SSW 01:37:28 84° WNW 01:42:49 10° NNE
Cosmos 2322 Rocket 3.8 01:35:54 10° N 01:40:54 31° NE 01:45:51 10° ESE
Cosmos 1503 Rocket 4.0 01:40:30 47° SSW 01:42:06 81° WNW 01:47:27 10° NNE
ASTEX 1 4.4 01:37:43 10° NNE 01:42:20 37° E 01:43:45 30° SE
Cosmos 1867 3.9 01:40:09 30° WSW 01:42:48 62° NW 01:48:16 10° NNE
USA 32 4.2 01:42:27 10° N 01:47:41 65° E 01:49:23 41° SSE
Cosmos 2151 3.0 01:48:24 59° SE 01:48:55 66° E 01:53:07 10° NNE
ALOS 2 4.0 01:48:44 25° WSW 01:49:04 25° W 01:52:43 10° NW
Cosmos 2344 3.7 01:46:20 29° SW 01:50:49 90° SE 01:59:58 10° NE
Cosmos 1151 Rocket 3.0 01:49:57 10° NNW 01:54:11 62° W 01:54:35 59° SW
Cosmos 1707 Rocket 4.0 01:50:40 10° N 01:54:57 52° ENE 01:56:00 41° ESE
Cosmos 1666 Rocket 4.4 01:59:40 35° ESE 02:00:31 39° E 02:04:34 10° NNE
Cosmos 783 Rocket 4.4 01:55:46 10° NNW 02:01:05 79° WSW 02:02:38 47° S
Aureole 1 Rocket 3.6 02:01:46 10° NNW 02:06:30 66° WSW 02:08:17 43° S
Cosmos 1328 3.6 02:06:37 72° SSE 02:07:00 83° E 02:11:00 10° N
H-2A R/B 4.4 02:04:43 10° NNW 02:07:17 17° WNW 02:08:33 15° W
Cosmos 1980 Rocket 2.1 02:03:32 10° NNW 02:09:12 78° WSW 02:11:16 41° SSE
Cosmos 2360 Rocket 4.5 02:05:00 10° N 02:09:20 22° NE 02:13:38 10° E
Abrixas 3.3 02:10:29 49° NE 02:10:29 49° NE 02:12:58 10° ENE
Cosmos 371 Rocket 3.6 02:07:41 10° NNW 02:12:31 61° ENE 02:14:41 31° SE
Cosmos 1538 Rocket 4.3 02:08:13 10° NNW 02:13:26 65° ENE 02:16:08 28° SE
Lacrosse 5 2.1 02:11:00 10° WNW 02:15:48 45° SW 02:15:56 44° SW
ERS-2 4.4 02:13:39 10° NE 02:15:57 16° E 02:16:51 15° ESE
CZ-2C R/B 3.2 02:15:01 42° S 02:17:00 74° WSW 02:22:48 10° NNW
Cosmos 1908 4.4 02:16:03 10° NNW 02:19:18 29° W 02:19:18 29° W
Meteor 1-11 4.3 02:22:54 38° S 02:25:13 73° E 02:31:03 10° NNE
Sich 1 3.2 02:24:20 46° SSE 02:25:26 64° E 02:29:51 10° NNE
Cosmos 1300 2.5 02:22:15 10° N 02:26:06 81° W 02:26:29 70° SSW
Cosmos 1697 Rocket 3.4 02:23:00 10° NW 02:28:06 35° WSW 02:29:06 33° SW
Cosmos 540 Rocket 3.8 02:25:43 10° NNW 02:30:40 47° WSW 02:31:46 40° SW
Cosmos 2082 Rocket 3.3 02:31:09 20° WSW 02:34:27 37° NW 02:39:43 10° NNE
Cosmos 1833 Rocket 3.5 02:34:02 24° WSW 02:37:00 43° NW 02:42:23 10° NNE
USA 215 4.3 02:31:39 10° ENE 02:37:10 28° SE 02:39:29 23° SSE
Cosmos 1745 Rocket 4.0 02:35:30 34° S 02:38:31 84° E 02:44:53 10° N
ATLAS 5 CENTAUR R/B 3.4 02:37:22 20° SE 02:38:50 23° ESE 02:42:48 10° ENE
Cosmos 1726 1.9 02:35:39 10° NNW 02:39:21 76° W 02:39:43 67° SSW
Nadezhda 1 Rocket 3.9 02:34:52 10° N 02:41:04 87° ENE 02:44:18 30° S
Lacrosse 5 rocket 1.4 02:37:31 10° NW 02:41:50 68° SW 02:43:29 37° SSE
Cosmos 1437 Rocket 4.5 02:42:05 10° NW 02:44:49 19° W 02:44:49 19° W
Cosmos 405 4.5 02:42:36 10° NW 02:45:21 25° W 02:45:21 25° W
Cosmos 1862 Rocket 4.2 02:44:13 10° N 02:48:37 53° ENE 02:51:01 25° SE
Cosmos 1455 3.0 02:49:19 10° N 02:53:00 47° ENE 02:54:41 27° SE
USA 161 4.4 02:53:24 10° ENE 02:53:43 10° ENE 02:54:03 10° ENE
Cosmos 1437 3.5 02:55:03 40° W 02:55:16 41° WNW 02:58:27 10° N
ATLAS CENTAUR R/B 3.8 02:52:50 10° NNW 02:57:01 28° NE 03:00:56 10° E
CZ-2C R/B 3.9 02:54:06 10° N 02:58:53 31° WNW 03:01:42 19° WSW
Cosmos 2058 4.0 03:01:55 28° WSW 03:02:59 32° WNW 03:06:46 10° N
Landsat 4 3.8 03:03:18 48° SW 03:03:56 56° W 03:07:38 10° NNW
Cosmos 1626 2.9 03:02:44 30° SE 03:04:06 45° E 03:07:43 10° NNE
ISS -2.0 03:04:13 10° WNW 03:05:58 28° W 03:05:58 28° W
CENTAUR R/B 3.1 03:03:49 20° WSW 03:08:17 54° NW 03:15:15 10° NE
SL-16 R/B 2.2 03:09:29 10° NNW 03:15:05 62° WSW 03:18:38 23° S
PSLV R/B 3.9 03:13:23 10° N 03:17:54 58° WNW 03:19:47 32° SW
BREEZE-M DEB (TANK) 4.2 03:05:11 10° W 03:19:32 90° SE 03:23:43 10° E
Cosmos 2112 Rocket 4.1 03:15:30 10° NNW 03:20:43 76° ENE 03:25:55 10° SSE
Cosmos 968 Rocket 3.8 03:19:49 27° SW 03:22:22 53° WNW 03:27:27 10° NNE
Cosmos 2292 Rocket 3.7 03:22:22 28° SSE 03:23:51 50° E 03:27:44 10° NNE
Cosmos 2322 Rocket 2.5 03:19:46 10° NW 03:25:09 48° WSW 03:28:10 25° S
Cosmos 1633 Rocket 4.2 03:25:15 24° WSW 03:26:54 32° WNW 03:30:55 10° N
SL-08 R/B 3.3 03:24:12 23° S 03:27:14 75° WSW 03:32:12 10° NNW
CZ-2D R/B 3.8 03:31:14 10° NE 03:35:41 27° E 03:40:08 10° SSE
Meteor 1-4 Rocket 3.6 03:40:00 10° NNW 03:43:22 31° W 03:44:24 26° SW
Cosmos 1869 3.6 03:40:13 10° NNW 03:44:05 50° W 03:45:59 27° SSW
Cosmos 1703 Rocket 3.6 03:39:51 10° N 03:44:14 80° E 03:47:58 14° SSE
Cosmos 1271 Rocket 3.7 03:41:48 10° NNW 03:45:08 30° W 03:46:09 26° WSW
Abrixas 3.1 03:43:09 10° WNW 03:46:13 57° N 03:49:16 10° E
Cosmos 2181 Rocket 4.0 03:42:44 10° NNW 03:48:50 64° W 03:53:52 16° S
Cosmos 1470 Rocket 4.4 03:47:03 23° SW 03:49:11 36° WNW 03:53:18 10° N
ERS-2 2.9 03:46:28 10° N 03:49:58 41° WNW 03:51:43 24° SW
NPP 3.8 03:45:05 10° N 03:50:25 62° WNW 03:54:03 20° SW
Cosmos 1980 Rocket 4.1 03:50:22 10° WNW 03:52:13 12° W 03:53:00 11° WSW
Cosmos 1933 Rocket 4.5 03:51:18 21° SW 03:53:29 34° WNW 03:57:33 10° N
Cosmos 2360 Rocket 2.1 03:48:19 10° NNW 03:53:57 76° WSW 03:59:35 10° SSE
Okean 1-7 3.2 03:55:17 10° N 03:59:42 73° E 04:04:02 10° SSE
Cosmos 304 Rocket 4.1 03:55:13 10° NNW 03:59:52 47° WSW 04:03:43 14° S
Cosmos 1346 3.2 04:01:02 27° SSW 04:02:28 59° WNW 04:05:32 10° N
Cosmos 2298 Rocket 4.4 03:58:13 14° S 04:02:40 60° ESE 04:07:56 10° NNE
Spot 4 Rocket 4.0 03:58:33 10° NNE 04:03:44 90° WNW 04:08:01 15° SSW
EO 1 Del DPAF 3.3 04:02:10 10° SSE 04:06:04 87° ENE 04:10:00 10° NNW
Cosmos 1680 Rocket 4.1 04:02:21 10° NW 04:07:09 38° WSW 04:11:08 14° SSW
BREEZE-M TANK 1.8 04:06:26 10° W 04:10:47 80° S 04:13:14 10° E
CRYOSAT 2 4.5 04:07:00 10° N 04:11:55 78° E 04:16:46 10° S
IRS-1C 4.4 04:07:02 10° N 04:12:18 58° WNW 04:16:33 15° SW
SL-23 DEB 3.4 04:09:15 10° WNW 04:12:23 85° NNE 04:16:17 10° ESE
Cosmos 2322 3.9 04:10:54 10° NW 04:16:28 52° WSW 04:21:58 10° S
Cosmos 2074 Rocket 4.0 04:11:07 11° S 04:17:08 85° W 04:23:27 10° N
MTI 4.3 04:14:08 10° SSE 04:17:27 66° ENE 04:20:49 10° N
Cosmos 2219 3.5 04:12:19 13° SSW 04:17:29 68° ESE 04:23:13 10° NNE
Cosmos 292 Rocket 4.1 04:13:46 10° NNW 04:18:36 71° ENE 04:23:22 10° SSE
Resurs 1-4 Rocket 2.5 04:13:21 10° NNE 04:18:39 64° ESE 04:23:56 10° S
Lacrosse 5 rocket 3.6 04:19:00 10° W 04:19:06 10° WSW 04:19:06 10° WSW
USA 215 3.3 04:14:07 10° NE 04:20:41 90° NW 04:26:49 12° SW
UNK 3.7 04:18:21 10° SSE 04:22:55 84° WSW 04:27:33 10° NNW
ATLAS 5 CENTAUR R/B 2.2 04:18:55 15° SW 04:23:01 60° NW 04:28:21 10° NE
USA 161 2.5 04:23:27 19° WSW 04:23:58 21° W 04:25:53 10° NW
Cosmos 1933 4.1 04:21:01 10° NNW 04:24:40 34° W 04:27:41 14° SSW
ARIANE 5 R/B 2.5 04:20:12 10° NNE 04:25:20 83° WNW 04:30:18 10° SSW
Cosmos 2184 Rocket 4.1 04:19:10 10° SSW 04:25:32 78° W 04:31:53 10° N
Meteor 1-26 Rocket 4.2 04:20:04 10° NNW 04:25:36 70° W 04:31:05 10° S
Cosmos 1455 4.2 04:26:30 10° WNW 04:28:18 13° W 04:29:43 11° WSW
IRS-1D 3.6 04:28:03 10° NNE 04:33:26 79° WNW 04:38:41 10° SSW
SL-16 R/B 2.6 04:29:39 10° S 04:35:51 63° WSW 04:42:06 10° NNW
ATLAS CENTAUR R/B 1.8 04:31:51 10° NW 04:36:24 49° WSW 04:40:35 10° SSE
Okean O Rocket 2.8 04:32:45 10° NNE 04:36:59 42° E 04:41:09 10° S
Cosmos 1898 Rocket 3.5 04:33:26 11° SSW 04:38:30 82° WNW 04:43:44 10° NNE
Cosmos 2333 Rocket 3.2 04:33:40 10° NNW 04:39:15 52° ENE 04:44:50 10° SE
Thor Agena Rocket 4.3 04:34:11 10° SSE 04:39:22 59° ENE 04:44:34 10° N
Cosmos 1626 4.3 04:37:45 10° WSW 04:39:48 14° WNW 04:41:53 10° NW
Cosmos 1937 Rocket 3.7 04:36:35 10° SSW 04:41:53 79° ESE 04:47:12 10° NNE
COSMOS 2428 2.8 04:44:18 10° NW 04:49:50 55° WSW 04:55:21 10° S
SME Rocket 3.5 04:44:24 10° SSE 04:50:24 75° WSW 04:54:39 10° NNW
MOS 1-B 4.4 04:46:25 10° NNE 04:52:13 76° WNW 04:57:59 10° SSW
IRS-1C Rocket 4.4 04:47:03 10° NNE 04:52:20 71° ESE 04:57:36 10° S
ASTRO F (AKARI) 4.2 04:50:17 10° S 04:53:29 67° WSW 04:56:39 10° NNW
Cosmos 1340 Rocket 3.9 04:50:31 10° SSE 04:54:21 45° E 04:58:11 10° NNE
Cosmos 389 Rocket 2.7 04:51:09 10° NNW 04:54:48 58° W 04:58:25 10° S
Cosmos 1892 2.9 04:51:02 10° S 04:54:55 79° E 04:58:48 10° NNE
CZ-2D R/B 3.5 04:51:16 10° NNE 04:55:27 80° ESE 04:59:30 10° S
Cosmos 2237 Rocket 2.7 04:56:25 10° NNW 05:02:06 67° ENE 05:07:46 10° SE
Cosmos 2150 Rocket 4.5 04:57:09 10° SW 05:02:20 51° WNW 05:07:38 10° NNE
NOSS 3-1 (C) 4.3 04:59:40 10° S 05:05:16 47° ESE 05:11:28 10° NE
